This is the latest recevied weather packets stored in our database for station/object XE2RCS-1. If no packets are shown the sender has not sent any weather packets the latest 10 day(s).
| Time | Temp. | Humidity | Pressure | Rain* | Wind** | Luminosity | Snow |
|---|---|---|---|---|---|---|---|
| 1778011100 | 33.89° C | 13% | 1006 hPa | 0 mm | - | - | - |
| 1778010499 | 33.33° C | 14% | 1006 hPa | 0 mm | - | - | - |
| 1778009298 | 33.89° C | 13% | 1007 hPa | 0 mm | - | - | - |
| 1778008697 | 33.89° C | 12% | 1007 hPa | 0 mm | - | - | - |
| 1778008097 | 33.89° C | 12% | 1007 hPa | 0 mm | - | - | - |
| 1778007496 | 33.89° C | 12% | 1007 hPa | 0 mm | - | - | - |
| 1778006895 | 32.78° C | 13% | 1007 hPa | 0 mm | - | - | - |
| 1778006295 | 32.78° C | 13% | 1007 hPa | 0 mm | - | - | - |
| 1778005694 | 32.78° C | 13% | 1008 hPa | 0 mm | - | - | - |
| 1778005093 | 32.78° C | 14% | 1008 hPa | 0 mm | - | - | - |
| 1778004493 | 32.78° C | 13% | 1008 hPa | 0 mm | - | - | - |
| 1778003892 | 32.78° C | 13% | 1008 hPa | 0 mm | - | - | - |
| 1778003291 | 32.22° C | 13% | 1008 hPa | 0 mm | - | - | - |
| 1778002691 | 31.67° C | 13% | 1008 hPa | 0 mm | - | - | - |
| 1778002090 | 31.67° C | 13% | 1012 hPa | 0 mm | - | - | - |
| 1778001490 | 31.67° C | 12% | 1012 hPa | 0 mm | - | - | - |
| 1778000889 | 31.67° C | 13% | 1012 hPa | 0 mm | - | - | - |
| 1778000288 | 31.67° C | 15% | 1011 hPa | 0 mm | - | - | - |
| 1777999687 | 31.11° C | 16% | 1011 hPa | 0 mm | - | - | - |
| 1777999087 | 30.56° C | 17% | 1011 hPa | 0 mm | - | - | - |
| 1777998487 | 30° C | 18% | 1013 hPa | 0 mm | - | - | - |
| 1777997886 | 30° C | 19% | 1013 hPa | 0 mm | - | - | - |
| 1777997285 | 29.44° C | 20% | 1013 hPa | 0 mm | - | - | - |
| 1777996685 | 29.44° C | 21% | 1011 hPa | 0 mm | - | - | - |
| 1777996084 | 28.89° C | 22% | 1011 hPa | 0 mm | - | - | - |
* Rain latest hour (hover to see other rain measurements)
** Current wind speed in m/s (hover to see current wind gust speed)